Saint Louis, MO

5:41 AM CST on December 07, 2016 (GMT -0600)
Lambert-Saint Louis International

Weather History for KSTL - November, 2014

Change the Weather History Date:

Sunday, November 9, 2014

  Actual Average Record
Temperature  
Mean Temperature 49 °F 50 °F  
Max Temperature 64 °F 59 °F 78 °F (1975)
Min Temperature 34 °F 41 °F 16 °F (1991)
Degree Days  
Heating Degree Days 16 15  
Month to date heating degree days 149 122  
Since 1 July heating degree days 385 398  
Cooling Degree Days 0 0  
Month to date cooling degree days 0 0  
Year to date cooling degree days 1732 1642  
Moisture  
Dew Point 31 °F    
Average Humidity 54    
Maximum Humidity 75    
Minimum Humidity 32    
Precipitation  
Precipitation 0.00 in 0.12 in 1.18 in (1946)
Month to date precipitation 0.58 1.09  
Year to date precipitation 38.83 35.30  
Snow  
Snow 0.00 in 0.00 in T in (1968)
Month to date snowfall 0.0 0.1  
Since 1 July snowfall 0.0 0.1  
Since 1 September snowfall 0.0 0.1  
Snow Depth 0.00 in    
Sea Level Pressure  
Sea Level Pressure 29.93 in    
Wind  
Wind Speed 7 mph (SSW)    
Max Wind Speed 16 mph    
Max Gust Speed 29 mph    
Visibility 10 miles    
Events      
T = Trace of Precipitation, MM = Missing Value Source: NWS Daily Summary

Daily Weather History Graph

Daily Weather History Graph

Search for Another Location

Airport or City:

Trip Planner

Search our weather history database for the weather conditions in past years. The results will help you decide how hot, cold, wet, or windy it might be!

Date:

Astronomy

Nov. 09, 2014 Rise Set
Actual Time 6:37 AM CST 4:52 PM CST
Civil Twilight 6:09 AM CST 5:21 PM CST
Nautical Twilight 5:37 AM CST 5:52 PM CST
Astronomical Twilight 5:06 AM CST 6:24 PM CST
Moon 7:26 PM CST (11/9) 9:09 AM CST (11/9)
Length of Visible Light 11h 11m
Length of Day
10h 15m
Waning Gibbous, 91% of the Moon is Illuminated
Nov 9
Waning Gibbous
Nov 14
Last Quarter
Nov 22
New
Nov 29
First Quarter
Dec 6
Full

Hourly Weather History & Observations

Time (CST) Temp. Windchill Dew Point Humidity Pressure Visibility Wind Dir Wind Speed Gust Speed Precip Events Conditions
12:51 AM 36.0 °F 32.1 °F 28.9 °F 76% 30.07 in 10.0 mi SW 4.6 mph - N/A   Scattered Clouds
1:51 AM 37.0 °F - 28.9 °F 73% 30.08 in 10.0 mi Calm Calm - N/A   Scattered Clouds
2:51 AM 36.0 °F 31.1 °F 28.0 °F 73% 30.05 in 10.0 mi SSW 5.8 mph - N/A   Partly Cloudy
3:51 AM 36.0 °F - 27.0 °F 70% 30.04 in 10.0 mi Calm Calm - N/A   Partly Cloudy
4:51 AM 37.0 °F - 28.0 °F 70% 30.04 in 10.0 mi Calm Calm - N/A   Partly Cloudy
5:51 AM 37.0 °F 33.3 °F 28.0 °F 70% 30.01 in 10.0 mi SSW 4.6 mph - N/A   Scattered Clouds
6:51 AM 36.0 °F 33.3 °F 28.0 °F 73% 30.02 in 10.0 mi SW 3.5 mph - N/A   Scattered Clouds
7:51 AM 39.9 °F 33.4 °F 30.0 °F 68% 30.03 in 10.0 mi SSW 10.4 mph - N/A   Overcast
8:51 AM 46.0 °F 41.4 °F 30.9 °F 56% 30.02 in 10.0 mi SSW 9.2 mph - N/A   Mostly Cloudy
9:51 AM 50.0 °F - 30.9 °F 48% 30.01 in 10.0 mi SW 10.4 mph - N/A   Clear
10:51 AM 54.0 °F - 30.9 °F 41% 29.97 in 10.0 mi SSW 10.4 mph - N/A   Mostly Cloudy
11:51 AM 57.0 °F - 30.9 °F 37% 29.94 in 10.0 mi SW 11.5 mph - N/A   Mostly Cloudy
12:51 PM 59.0 °F - 32.0 °F 36% 29.90 in 10.0 mi SSW 12.7 mph - N/A   Mostly Cloudy
1:51 PM 61.0 °F - 30.9 °F 32% 29.87 in 10.0 mi SSW 11.5 mph - N/A   Mostly Cloudy
2:51 PM 63.0 °F - 32.0 °F 31% 29.85 in 10.0 mi South 8.1 mph 18.4 mph N/A   Overcast
3:51 PM 62.1 °F - 33.1 °F 34% 29.84 in 10.0 mi South 10.4 mph - N/A   Mostly Cloudy
4:51 PM 60.1 °F - 32.0 °F 35% 29.83 in 10.0 mi South 8.1 mph - N/A   Mostly Cloudy
5:51 PM 57.9 °F - 33.1 °F 39% 29.85 in 10.0 mi SSE 6.9 mph - N/A   Scattered Clouds
6:51 PM 55.9 °F - 33.1 °F 42% 29.86 in 10.0 mi South 6.9 mph - N/A   Mostly Cloudy
7:51 PM 55.0 °F - 33.1 °F 43% 29.84 in 10.0 mi South 10.4 mph - N/A   Mostly Cloudy
8:51 PM 53.1 °F - 33.1 °F 47% 29.83 in 10.0 mi South 5.8 mph - N/A   Mostly Cloudy
9:51 PM 52.0 °F - 33.1 °F 49% 29.83 in 10.0 mi South 5.8 mph - N/A   Scattered Clouds
10:51 PM 51.1 °F - 34.0 °F 52% 29.83 in 10.0 mi SSE 5.8 mph - N/A   Scattered Clouds
11:51 PM 48.9 °F - 35.1 °F 59% 29.83 in 10.0 mi South 5.8 mph - N/A   Scattered Clouds